CZ-2D R/B, 51103

Orbit data source: Space-Track

CZ-2D R/B, 51103 is space debris in SSO originally from a launch on Mon, 17 Jan 2022 UTC launched from the Taiyaun Space Center, China (TSC). Debris objects in space refer to the collection of defunct objects orbiting the Earth. Examples of debris include non-operational satellites, rocket bodies, and fragments generated from explosions, collisions, or faulty payload assembly.

Loading next visibility...
Identifier
51103, 2022-004B
Orbit
SSO
Country
Flag of CNCN / PRC
Related business
Manufacturer
BWYIC
Mission
Spacecraft
Bus & Motor
CZ-2 STAGE 2, Unknown motor
Mass
4,006 kg wet, 4,006 kg dry
Launch date (UTC)
2022-01-17 (4 years ago)
Launch vehicle
Unknown
Launch site
Taiyaun Space Center, China (TSC)
Object type
Payload
Rocket body
Debris
Shape & HBR
Cyl, 4.5 m
Radar Cross Section
27.824 m², Large (>1 m²)

Expand to show TLE details & history
Last TLE update: 2 days ago

TLE from 2 days ago
0 CZ-2D R/B
1 51103U 22004B   26171.21851652  .00006393  00000-0  22126-3 0  9992
2 51103  98.4786 263.0287 0477179 338.9331  19.2781 14.63066873232129
Epoch: 2026-06-20T05:14Z
TLE epoch observation values (Epoch: 2026-06-20T05:14:39.827Z)
Latitude
-0.00002°
Longitude
-84.07353°
Altitude
370.032 km
Speed
7.858 km/s
True Right ascension
17h 32m 06s
True Declination
0° 00' 00"
Sunlit
Object was in full shadow at epoch
Visualization orbit readout
Latitude
Unknown
Longitude
Unknown
Altitude
Unknown
Speed
Unknown
Apparent Right ascension
Unknown
Apparent Declination
Unknown
Sunlit
N/A
Visualization observer readout
Local Sidereal Time
23:09:15
Azimuth
Unknown
Elevation
Unknown
Doppler factor
Unknown
Orbital elements
Apogee altitude
1,017.186 km
Perigee altitude
343.552 km
Semi-major axis
7,058.506 km
Eccentricity
0.04772
Inclination
98.4786°
RAAN
263.0287°
Arg. of periapsis
338.9331°
True anomaly
21.19048°
Mean anomaly
19.2781°
Eccentric anomaly
20.2232°
Mean motion
3.65994 °/min
Orbital period
98.36 mins
BSTAR
0.00022126
Loading maneuver chart data...
Computing Atmospheric mass density...
Loading historical data...
Loading historical data...
Loading historical data...
Loading historical data...
Loading historical data...
Loading historical data...
Loading historical data...
Other satellites on launch #4 in the year 2022 (2022-01-17 UTC)

Documentation

Showing up to 5 results
|